TimeCDT,TemperatureF,Dew PointF,Humidity,Sea Level PressureIn,VisibilityMPH,Wind Direction,Wind SpeedMPH,Gust SpeedMPH,PrecipitationIn,Events,Conditions,WindDirDegrees,DateUTC
12:14 AM,64.4,60.8,88,29.88,10.0,SSW,4.6,-,N/A,,Clear,200,2013-06-24 05:14:00
12:33 AM,64.4,60.8,88,29.88,10.0,South,4.6,-,N/A,,Clear,190,2013-06-24 05:33:00
12:54 AM,64.4,60.8,88,29.88,10.0,SSW,4.6,-,N/A,,Clear,210,2013-06-24 05:54:00
1:13 AM,64.4,60.8,88,29.88,10.0,South,5.8,-,N/A,,Clear,180,2013-06-24 06:13:00
1:33 AM,64.4,60.8,88,29.88,10.0,South,4.6,-,N/A,,Clear,180,2013-06-24 06:33:00
1:53 AM,64.4,60.8,88,29.87,10.0,South,3.5,-,N/A,,Clear,180,2013-06-24 06:53:00
2:13 AM,64.4,60.8,88,29.88,10.0,South,5.8,-,N/A,,Clear,180,2013-06-24 07:13:00
2:34 AM,64.4,60.8,88,29.89,10.0,South,5.8,-,N/A,,Clear,190,2013-06-24 07:34:00
2:53 AM,64.4,60.8,88,29.87,10.0,SSE,3.5,-,N/A,,Clear,150,2013-06-24 07:53:00
3:13 AM,64.4,60.8,88,29.87,10.0,South,4.6,-,N/A,,Clear,180,2013-06-24 08:13:00
3:33 AM,64.4,60.8,88,29.85,10.0,Calm,Calm,-,N/A,,Clear,0,2013-06-24 08:33:00
3:53 AM,62.6,59.0,88,29.85,10.0,Calm,Calm,-,N/A,,Clear,0,2013-06-24 08:53:00
4:14 AM,62.6,60.8,94,29.86,10.0,Calm,Calm,-,N/A,,Clear,0,2013-06-24 09:14:00
4:33 AM,62.6,60.8,94,29.86,10.0,Calm,Calm,-,N/A,,Clear,0,2013-06-24 09:33:00
4:53 AM,62.6,60.8,94,29.87,10.0,Calm,Calm,-,N/A,,Clear,0,2013-06-24 09:53:00
5:13 AM,60.8,57.2,88,29.88,10.0,Calm,Calm,-,N/A,,Clear,0,2013-06-24 10:13:00
5:33 AM,60.8,57.2,88,29.87,7.0,Calm,Calm,-,N/A,,Clear,0,2013-06-24 10:33:00
5:53 AM,60.8,57.2,88,29.88,10.0,ESE,4.6,-,N/A,,Clear,110,2013-06-24 10:53:00
6:13 AM,60.8,57.2,88,29.88,10.0,ESE,3.5,-,N/A,,Clear,110,2013-06-24 11:13:00
6:33 AM,62.6,59.0,88,29.88,10.0,Calm,Calm,-,N/A,,Clear,0,2013-06-24 11:33:00
6:54 AM,62.6,60.8,94,29.87,10.0,Calm,Calm,-,N/A,,Clear,0,2013-06-24 11:54:00
7:13 AM,64.4,62.6,94,29.86,10.0,Calm,Calm,-,N/A,,Clear,0,2013-06-24 12:13:00
7:33 AM,66.2,62.6,88,29.85,10.0,ESE,3.5,-,N/A,,Clear,110,2013-06-24 12:33:00
7:53 AM,69.8,62.6,78,29.85,10.0,Calm,Calm,-,N/A,,Clear,0,2013-06-24 12:53:00
8:13 AM,69.8,62.6,78,29.86,10.0,SSE,6.9,-,N/A,,Clear,150,2013-06-24 13:13:00
8:33 AM,71.6,64.4,78,29.86,10.0,SSE,4.6,-,N/A,,Clear,150,2013-06-24 13:33:00
8:53 AM,71.6,62.6,73,29.85,10.0,SE,4.6,-,N/A,,Clear,140,2013-06-24 13:53:00
9:14 AM,71.6,62.6,73,29.85,10.0,SSE,5.8,-,N/A,,Clear,150,2013-06-24 14:14:00
9:34 AM,73.4,64.4,73,29.86,10.0,SE,3.5,-,N/A,,Clear,140,2013-06-24 14:34:00
9:54 AM,73.4,62.6,69,29.88,10.0,SSE,4.6,-,N/A,,Clear,160,2013-06-24 14:54:00
10:13 AM,73.4,64.4,73,29.87,7.0,SSE,3.5,-,N/A,,Clear,160,2013-06-24 15:13:00
10:33 AM,73.4,64.4,73,29.86,10.0,SSE,6.9,-,N/A,,Clear,150,2013-06-24 15:33:00
10:54 AM,75.2,64.4,69,29.85,10.0,SE,9.2,-,N/A,,Clear,140,2013-06-24 15:54:00
11:13 AM,75.2,64.4,69,29.83,10.0,SE,9.2,-,N/A,,Clear,130,2013-06-24 16:13:00
11:33 AM,75.2,64.4,69,29.81,10.0,SE,6.9,-,N/A,,Clear,130,2013-06-24 16:33:00
11:53 AM,75.2,64.4,69,29.81,10.0,SE,9.2,-,N/A,,Clear,130,2013-06-24 16:53:00
12:14 PM,77.0,64.4,65,29.81,10.0,ESE,8.1,-,N/A,,Clear,120,2013-06-24 17:14:00
12:34 PM,77.0,66.2,69,29.82,10.0,SE,6.9,-,N/A,,Clear,140,2013-06-24 17:34:00
12:53 PM,78.8,66.2,65,29.80,10.0,ESE,10.4,-,N/A,,Clear,110,2013-06-24 17:53:00
1:14 PM,78.8,66.2,65,29.79,10.0,ESE,11.5,-,N/A,,Clear,120,2013-06-24 18:14:00
1:34 PM,80.6,66.2,61,29.80,10.0,SE,12.7,-,N/A,,Clear,140,2013-06-24 18:34:00
1:54 PM,80.6,66.2,61,29.79,10.0,ESE,12.7,-,N/A,,Clear,110,2013-06-24 18:54:00
2:14 PM,78.8,66.2,65,29.80,10.0,SE,12.7,18.4,N/A,,Clear,140,2013-06-24 19:14:00
2:33 PM,78.8,66.2,65,29.80,10.0,SE,13.8,17.3,N/A,,Clear,130,2013-06-24 19:33:00
2:53 PM,78.8,66.2,65,29.78,10.0,ESE,11.5,-,N/A,,Clear,110,2013-06-24 19:53:00
3:13 PM,78.8,68.0,69,29.80,10.0,SE,9.2,-,N/A,,Clear,140,2013-06-24 20:13:00
3:35 PM,78.8,68.0,69,29.80,10.0,SE,15.0,20.7,N/A,,Clear,140,2013-06-24 20:35:00
3:53 PM,80.6,69.8,70,29.79,10.0,SE,12.7,18.4,N/A,,Clear,140,2013-06-24 20:53:00
4:13 PM,78.8,66.2,65,29.78,10.0,SE,6.9,-,N/A,,Clear,140,2013-06-24 21:13:00
4:34 PM,77.0,64.4,65,29.78,10.0,SE,9.2,16.1,N/A,,Clear,130,2013-06-24 21:34:00
4:53 PM,77.0,66.2,69,29.79,10.0,SE,4.6,-,N/A,,Clear,140,2013-06-24 21:53:00
5:13 PM,77.0,64.4,65,29.78,10.0,SE,4.6,-,N/A,,Clear,140,2013-06-24 22:13:00
5:34 PM,78.8,64.4,61,29.77,10.0,South,6.9,-,N/A,,Clear,180,2013-06-24 22:34:00
5:54 PM,77.0,66.2,69,29.76,10.0,SSE,6.9,-,N/A,,Clear,160,2013-06-24 22:54:00
6:13 PM,77.0,66.2,69,29.76,10.0,SSW,3.5,-,N/A,,Clear,210,2013-06-24 23:13:00
6:33 PM,78.8,66.2,65,29.76,10.0,South,6.9,-,N/A,,Clear,170,2013-06-24 23:33:00
6:53 PM,78.8,68.0,69,29.77,10.0,South,8.1,-,N/A,,Clear,180,2013-06-24 23:53:00
7:13 PM,78.8,68.0,69,29.77,10.0,South,4.6,-,N/A,,Clear,180,2013-06-25 00:13:00
7:33 PM,78.8,66.2,65,29.76,10.0,SE,4.6,-,N/A,,Clear,130,2013-06-25 00:33:00
7:53 PM,78.8,64.4,61,29.77,10.0,SE,6.9,-,N/A,,Clear,130,2013-06-25 00:53:00
8:13 PM,78.8,66.2,65,29.77,10.0,SE,3.5,-,N/A,,Clear,140,2013-06-25 01:13:00
8:33 PM,78.8,68.0,69,29.77,10.0,East,9.2,-,N/A,,Scattered Clouds,100,2013-06-25 01:33:00
8:54 PM,75.2,68.0,78,29.77,10.0,East,5.8,-,N/A,,Scattered Clouds,100,2013-06-25 01:54:00
9:13 PM,73.4,66.2,78,29.77,10.0,East,5.8,-,N/A,,Clear,100,2013-06-25 02:13:00
9:33 PM,73.4,66.2,78,29.77,10.0,ESE,6.9,-,N/A,,Clear,120,2013-06-25 02:33:00
9:53 PM,73.4,66.2,78,29.78,10.0,ESE,6.9,-,N/A,,Clear,120,2013-06-25 02:53:00
10:13 PM,71.6,66.2,83,29.78,10.0,ESE,5.8,-,N/A,,Clear,110,2013-06-25 03:13:00
10:33 PM,71.6,66.2,83,29.78,10.0,ESE,4.6,-,N/A,,Clear,120,2013-06-25 03:33:00
10:53 PM,71.6,66.2,83,29.78,10.0,SE,4.6,-,N/A,,Clear,130,2013-06-25 03:53:00
11:14 PM,71.6,66.2,83,29.78,10.0,SE,5.8,-,N/A,,Clear,130,2013-06-25 04:14:00
11:33 PM,71.6,66.2,83,29.77,10.0,SE,6.9,-,N/A,,Clear,130,2013-06-25 04:33:00
11:54 PM,69.8,66.2,88,29.77,10.0,SE,6.9,-,N/A,,Clear,130,2013-06-25 04:54:00